Location: Cussy
(47.0410°N, 4.6412°E)
Time: 19:24:46
(UTC+00:00)

Cosmos 2239 Rocket - Pass Details

Date: 30 November 2020
Orbit: 955 x 990 km, 82.9° (Epoch: 27 January)

Event Time Altitude Azimuth Distance (km) Brightness Sun altitude
Rises 18:10:49 0° 351° (N) 3,649 7.5 -22.5°
Reaches altitude 10° 18:13:20 10° 353° (N) 2,701 6.8 -22.9°
Maximum altitude 18:19:31 81° 80° (E) 981 4.3 -24.0°
Drops below altitude 10° 18:25:43 10° 169° (S) 2,703 6.8 -25.0°
Sets 18:28:13 0° 170° (S) 3,651 7.5 -25.5°
